Location: Lombard
(41.8800°N, 88.0080°W)
Time: 06:45:26
(UTC-05:00)

BEESAT - Pass Details

Date: 17 May 2022
Orbit: 698 x 708 km, 98.6° (Epoch: 27 June)

Event Time Altitude Azimuth Distance (km) Brightness Sun altitude
Rises 22:11:28 0° 1° (N) 3,096 ? -18.7°
Reaches altitude 10° 22:14:04 10° 348° (NNW) 2,172 ? -19.0°
Maximum altitude 22:17:52 25° 294° (WNW) 1,416 ? -19.4°
Drops below altitude 10° 22:21:39 10° 241° (WSW) 2,158 ? -19.8°
Sets 22:24:13 0° 228° (SW) 3,070 ? -20.1°
